Torna al catalogo

STARLINK-32237

AttivoComunicazioniVLEO
NORAD 60443·PAYLOAD·🇺🇸 United States

Lanciato Aug 12, 2024 da Cape Canaveral Space Force Station

Loading…

Prossimi Passaggi (prossime 24 ore)

TLE

AggiornatoSource: CelesTrak SupGP

Epoca: Sep 14, 2026, 20:41 UTC

1 60443C 24144U   26257.86229167  .00029268  00000+0  86507-3 0  2577
2 60443  53.1593  54.3620 0001180  77.1487 147.3210 15.34363543    15

Traccia STARLINK-32237 in tempo reale con AllMySat

Download on the App Store